SCP
-0 -0 -0 -0 -0 -0 -0 -0 -0 0 0 0 0 0 -0 0 -0 -0 -0 0 -0 -0 0 0 0 0 -0 -0 -0 -0 -0 -0 -0 -0 -0 -0 -0 -0 -0 0 0 -0 -0
-0 -0 -0 -0 -0 -0 -0 -0 -0 0 0 0 0 0 0 0 0 0 0 0 -0 -0 -0 -0 0 0 -0 -0 -0 -0 -0 -0 -0 -0 -0 -0 -0 -0 -0 -0 -0 -0 -0
-0 -0 -0 -0 -0 -0 -0 -0 -0 -0 0 0 0 0 0 0 0 0 0 0 0 -0 -0 0 0 0 0 -0 -0 -0 -0 -0 -0 -0 -0 0 0 -0 0 0 0 -0 -0
-0 -0 -0 -0 -0 -0 -0 -0 -0 -0 -0 -0 -0 -0 -0 0 0 0 0 0 0 0 0 0 0 0 -0 -0 -0 -0 -0 -0 -0 -0 0 0 0 -0 -0 0 -0 -0 -0
-0 -0 -0 -0 -0 -0 -0 -0 -0 -0 -0 -0 -0 -0 0 0 0 0 0 0 0 0 0 0 0 0 -0 -0 -0 -0 -0 -0 -0 -0 -0 -0 0 -0 -0 -0 -0 -0 -0
-0 0 0 -0 -0 -0 -0 -0 -0 -0 -0 -0 -0 0 0 0 0 0 0 0 0 0 0 0 0 -0 -0 -0 -0 -0 -0 -0 -0 -0 -0 -0 0 0 -0 -0 -0 -0 -0
-0 -0 -0 0 0 -0 0 -0 -0 -0 -0 0 0 0 0 0 0 0 0 0 0 0 0 0 0 -0 -0 -0 -0 -0 -0 -0 0 0 0 0 0 -0 -0 -0 -0 -0 -0
-0 -0 -0 -0 -0 -0 0 0 0 0 0 0 0 0 0 0 0 0 0 0 0 0 0 0 0 -0 -0 -0 -0 -0 -0 -0 0 0 0 0 0 0 0 -0 -0 -0 -0
0 0 0 0 0 -0 0 0 0 0 0 0 0 0 0 0 0 0 0 0 0 0 0 0 0 0 0 0 0 -0 -0 0 0 0 0 0 0 0 0 0 0 0 0
0 0 0 0 0 0 0 0 0 0 0 0 0 0 0 0 0 0 0 0 0 0 0 0 0 0 0 0 0 0 0 0 0 0 0 0 0 0 0 0 0 0 0
0 0 0 0 0 0 0 0 0 0 0 0 0 0 0 0 0 0 0 0 0 0 0 0 0 0 0 0 0 0 0 0 0 0 0 0 0 0 0 0 0 0 0
0 0 0 0 0 0 0 0 0 0 0 0 0 0 0 0 0 0 0 0 0 0 0 0 0 0 0 0 0 0 0 0 0 0 0 0 0 0 0 0 0 0 0
0 0 0 0 0 0 0 0 0 0 0 0 0 0 0 0 0 0 0 0 0 0 0 0 0 0 0 0 0 0 0 0 0 0 0 0 0 0 0 0 0 0 0
0 0 0 0 0 0 0 0 0 0 0 0 0 0 0 0 0 0 0 0 0 0 0 0 0 0 0 0 0 0 0 0 0 0 0 0 0 0 0 0 0 0 0
0 0 0 0 0 0 0 0 0 0 0 0 0 0 0 0 0 0 0 0 0 0 0 0 0 0 0 0 0 0 0 0 0 0 0 0 0 0 0 0 0 0 0
0 0 0 0 0 0 0 0 0 0 0 0 0 0 0 0 0 0 0 0 0 0 0 0 0 0 0 0 0 0 0 0 0 0 0 0 0 0 0 0 0 0 0
0 0 0 0 0 0 0 0 0 0 0 0 0 0 0 0 0 0 0 0 0 0 0 0 0 0 0 0 0 0 0 0 0 0 0 0 0 0 0 0 0 0 0
0 0 0 0 0 0 0 0 0 0 0 0 0 0 0 0 0 0 0 0 0 0 0 0 0 0 0 0 0 0 0 0 0 0 0 0 0 0 0 0 0 0 0
0 0 0 0 0 0 0 0 0 0 0 0 0 0 0 0 0 0 0 0 0 0 0 0 0 0 0 0 0 0 0 0 0 0 0 0 0 0 0 0 0 0 0
0 0 0 0 0 0 0 0 0 0 0 0 0 0 0 0 0 0 0 0 0 0 0 0 0 0 0 0 0 0 0 0 0 0 0 0 0 0 0 0 0 0 0
0 0 0 0 0 0 0 0 0 0 0 0 0 0 0 0 0 0 0 0 0 0 0 0 0 0 0 0 0 0 0 0 0 0 0 0 0 0 0 0 0 0 0
0 0 0 0 0 0 0 0 0 0 0 0 0 0 0 0 0 0 0 0 0 0 0 0 0 0 0 0 0 0 0 0 0 0 0 0 0 0 0 0 0 0 0
-0 0 0 0 0 0 0 0 0 0 0 0 0 0 0 0 0 0 0 0 0 0 0 0 0 0 0 0 0 0 0 0 0 0 0 0 0 0 0 0 0 0 0
0 0 0 0 0 0 0 0 0 0 0 0 0 0 0 0 0 0 0 0 0 0 0 0 0 0 0 0 0 0 0 0 0 0 0 0 0 0 0 0 0 0 0
0 0 0 0 0 0 0 0 0 0 0 0 0 0 0 0 0 0 0 0 0 0 0 0 0 0 0 0 0 0 0 0 0 0 0 0 0 0 0 0 0 0 0
0 -0 -0 0 0 0 0 0 0 0 0 0 0 0 0 0 0 0 0 0 0 0 0 0 0 0 0 0 0 0 0 0 0 0 0 0 0 0 0 0 0 0 0
Wind_Speed_500mb
57 49 45 42 40 35 30 30 31 30 26 22 20 19 15 10 11 12 11 10 10 12 13 12 10 10 7 8 11 8 4 4 4 4 6 8 14 13 10 13 15 16 16
53 51 48 45 40 37 33 28 27 28 27 25 22 21 20 17 16 12 12 14 12 10 14 11 10 9 7 8 9 4 2 2 1 1 1 6 10 9 7 9 10 11 9
46 48 51 47 44 39 35 32 28 25 24 23 20 21 23 24 22 18 17 17 15 15 11 3 4 5 8 7 6 4 2 2 4 3 3 3 5 6 3 3 2 1 3
33 42 47 48 46 43 36 34 32 28 24 23 26 26 22 21 21 18 19 20 21 20 12 9 9 8 10 10 10 9 8 8 8 7 5 5 7 8 7 6 9 7 7
32 38 41 43 43 44 43 39 34 29 33 29 30 34 32 26 19 14 18 23 23 21 17 15 16 16 16 16 15 15 15 15 14 13 11 11 10 11 13 13 10 10 9
30 38 40 40 40 40 38 39 38 37 35 36 38 28 27 28 25 19 21 24 23 23 21 19 18 17 17 16 15 14 15 16 18 18 20 18 16 17 18 16 13 14 16
27 33 39 41 42 40 41 40 41 42 42 44 30 23 26 26 23 21 21 21 20 20 19 17 15 11 9 7 6 6 8 11 14 16 17 20 23 26 26 22 20 19 18
27 31 37 43 43 41 45 44 43 43 45 45 33 25 26 24 23 21 19 19 17 15 12 8 7 5 4 5 5 5 5 7 9 10 12 15 22 29 29 28 26 27 25
30 33 36 42 45 45 44 46 46 46 45 48 37 31 27 25 22 21 18 17 14 12 9 8 5 3 3 4 5 6 8 9 11 11 10 12 17 24 26 28 29 30 30
35 37 39 42 47 50 47 47 48 45 46 46 41 34 28 26 24 20 18 16 15 13 12 10 8 6 4 4 4 5 7 9 12 13 13 13 15 19 21 24 28 29 32
41 41 44 46 50 52 50 50 50 48 49 44 42 38 33 30 27 24 24 22 19 16 14 11 8 6 7 7 6 6 6 8 10 12 13 15 17 19 20 21 23 26 30
44 45 48 50 51 54 56 56 55 54 53 48 46 42 36 35 31 30 27 25 22 20 17 13 10 8 7 7 8 8 10 11 11 12 12 14 17 20 21 21 22 24 26
46 49 50 54 55 57 60 60 61 60 58 54 52 47 43 43 40 37 33 29 27 23 19 14 10 7 7 8 9 11 12 13 14 13 13 13 17 19 21 21 23 24 26
51 50 53 58 60 62 63 66 66 66 64 62 59 54 52 51 48 44 39 35 31 26 20 16 12 9 9 10 13 15 15 15 15 15 15 14 16 18 19 20 21 23 24
52 55 57 59 63 67 69 70 72 72 70 67 65 61 58 56 53 49 45 42 37 31 27 22 17 13 11 12 14 16 16 17 17 18 18 16 15 17 19 20 21 19 18
45 47 55 63 67 71 73 75 77 77 75 73 73 70 66 62 60 57 53 49 44 39 34 28 23 17 12 12 15 16 18 18 18 19 19 18 16 15 17 18 18 13 7
58 53 55 60 71 76 79 79 81 81 80 80 79 76 74 70 68 65 60 56 50 44 39 34 27 21 16 14 15 17 18 18 19 18 18 15 13 13 14 14 17 18 20
81 74 68 65 70 78 84 86 86 86 86 86 85 84 82 78 74 72 68 62 57 52 47 41 35 28 22 18 16 15 17 19 20 16 13 13 14 14 13 13 12 12 13
68 67 68 70 74 75 84 92 93 93 91 91 90 89 90 85 80 78 73 67 64 61 55 49 43 35 26 21 17 14 17 19 19 18 15 14 14 14 13 15 16 15 11
52 52 54 56 66 75 82 92 99 100 99 100 97 95 94 91 87 83 79 75 73 69 63 57 49 40 32 27 21 16 15 16 17 18 18 17 17 16 16 16 15 12 11
35 39 43 52 55 67 84 94 103 108 107 109 105 101 99 95 92 89 86 84 80 76 68 60 54 49 43 35 26 17 13 14 15 17 17 17 16 13 12 13 15 16 15
34 32 41 44 53 61 74 87 98 103 109 111 109 108 105 101 97 96 94 89 84 81 74 70 63 58 52 43 31 21 13 16 21 22 23 21 17 13 9 13 14 13 13
40 31 37 44 49 59 68 79 90 99 100 107 115 116 112 105 102 99 95 91 88 85 82 75 70 65 58 50 41 27 14 16 23 31 34 31 27 18 13 14 15 14 13
53 45 36 39 48 58 67 78 86 93 98 100 108 110 110 107 106 103 101 98 94 90 86 80 74 69 65 60 49 42 36 26 21 18 34 34 35 28 19 16 16 15 15
60 48 35 40 40 52 64 71 79 86 91 94 95 98 105 108 108 106 103 101 98 93 87 83 80 78 73 65 59 51 43 37 36 32 21 30 35 33 25 20 17 14 14
76 67 46 36 37 36 52 64 72 77 83 88 89 87 90 102 107 106 105 102 98 94 93 88 84 80 75 69 63 58 52 46 40 38 37 29 30 29 29 25 20 14 13
Wind_Direction_500mb
189 191 193 191 185 186 185 177 175 177 184 190 194 202 211 200 199 190 184 176 210 218 220 226 228 248 245 207 205 200 156 109 87 79 88 95 97 90 62 62 71 71 58
189 192 195 195 192 193 194 195 191 186 190 197 203 210 219 221 229 222 202 193 197 221 233 234 239 252 244 255 272 299 274 245 255 2 73 113 127 126 115 98 89 79 68
191 195 198 201 202 202 203 203 203 203 206 209 216 221 225 231 241 243 243 233 225 232 259 273 285 295 287 277 293 314 297 287 286 266 252 251 193 173 179 171 129 47 8
187 198 201 203 204 205 203 204 201 204 206 208 211 222 228 228 237 238 238 236 240 252 271 267 268 273 279 283 286 286 286 276 270 274 270 254 239 232 235 246 244 265 289
184 195 201 203 204 203 203 208 205 202 208 214 216 226 225 238 245 231 223 229 243 258 264 269 270 273 274 270 270 273 277 278 275 272 268 260 256 252 249 251 256 257 266
198 197 202 203 203 200 202 205 203 200 208 213 215 221 215 227 241 239 226 227 235 249 260 263 263 266 272 276 276 274 275 273 271 265 260 257 258 255 256 256 253 258 256
213 208 208 205 204 201 196 196 196 199 203 215 224 227 216 229 237 232 225 230 234 239 245 255 264 272 271 278 286 293 285 276 270 263 258 254 250 251 257 254 253 257 266
223 220 213 211 212 209 206 208 209 209 216 231 240 234 229 227 223 226 228 231 234 237 237 233 235 239 268 290 306 306 285 274 274 272 261 246 246 248 251 255 256 259 267
228 226 222 218 216 219 215 216 217 219 222 233 239 234 228 224 220 216 214 215 216 214 206 208 212 234 266 284 292 290 291 290 286 274 263 254 247 251 255 254 255 256 259
231 231 227 225 223 224 223 221 225 224 228 235 236 234 226 222 216 213 217 215 207 198 196 194 194 204 229 256 280 291 289 285 282 284 284 277 265 262 259 254 251 254 255
236 233 231 228 226 226 226 227 228 227 231 232 229 230 227 222 215 213 215 211 208 204 206 214 229 257 278 292 304 305 302 296 289 282 277 273 272 271 273 270 265 259 258
248 244 237 232 231 228 227 227 229 230 234 230 228 229 225 221 218 219 218 214 210 207 212 220 231 252 277 293 304 312 316 313 302 295 289 278 270 266 266 269 270 268 265
261 251 247 240 235 232 230 230 230 231 233 232 229 229 224 221 221 221 220 217 214 214 219 226 234 248 276 302 315 321 323 317 315 309 297 282 270 265 264 264 263 263 267
262 256 249 245 241 239 234 232 233 233 234 233 231 228 225 224 223 222 221 219 220 220 222 226 237 259 286 312 321 324 323 320 317 313 307 293 278 271 262 257 258 261 266
261 256 251 246 243 242 239 237 234 235 235 235 234 232 230 228 228 226 223 223 222 223 224 226 233 248 273 301 317 322 320 321 321 319 312 304 290 275 269 262 254 251 253
273 269 255 248 244 243 241 240 239 237 238 235 234 233 232 230 230 228 226 225 225 225 224 225 228 237 261 295 310 316 316 316 317 318 313 308 301 280 262 260 256 242 123
281 275 267 257 247 244 241 240 239 238 238 238 236 234 233 231 230 229 228 227 226 226 225 227 230 238 252 277 293 303 305 307 307 307 300 292 280 273 265 246 225 222 219
283 279 278 267 254 246 243 241 239 238 237 236 235 234 234 232 231 230 228 226 227 227 226 225 226 229 235 252 272 288 296 299 298 290 276 263 254 250 245 247 246 230 231
288 282 275 268 260 251 243 241 240 239 238 237 236 234 234 233 232 230 229 227 228 227 226 225 225 224 231 245 258 277 291 295 290 278 260 243 236 233 232 242 251 254 249
298 286 275 264 256 249 242 238 238 238 237 237 235 234 234 232 232 230 228 227 228 227 225 225 224 224 227 231 242 258 273 277 267 253 244 238 239 247 254 256 259 264 273
318 295 280 268 257 246 237 234 234 235 235 235 234 234 233 231 231 230 229 228 227 228 229 227 224 223 223 224 227 231 245 251 240 224 219 213 209 207 219 237 250 258 259
320 303 291 270 254 247 240 238 235 237 236 236 235 233 231 229 229 229 229 229 229 229 226 224 224 223 221 221 220 219 225 233 225 224 212 205 208 214 241 260 259 255 249
324 297 284 282 263 253 245 237 236 235 237 238 235 232 230 228 228 229 230 231 232 231 230 228 226 225 225 225 222 216 194 217 212 222 221 224 224 222 261 262 262 249 232
336 318 269 267 271 262 252 246 239 237 236 238 238 235 232 230 229 228 228 229 230 231 230 230 229 227 227 227 223 224 232 234 199 213 227 228 222 237 256 258 243 229 220
359 346 310 283 269 266 260 255 249 243 242 243 241 237 232 230 230 230 230 229 229 229 230 230 228 225 226 227 229 232 231 233 232 231 224 226 226 228 244 245 235 220 194
12 12 4 345 318 287 271 263 261 257 252 248 244 240 236 231 230 231 232 232 231 231 229 228 228 228 228 229 231 235 239 237 237 231 229 226 216 225 231 232 217 209 194
Wind_Speed_850mb
57 49 45 42 40 35 30 30 31 30 26 22 20 19 15 10 11 12 11 10 10 12 13 12 10 10 7 8 11 8 4 4 4 4 6 8 14 13 10 13 15 16 16
53 51 48 45 40 37 33 28 27 28 27 25 22 21 20 17 16 12 12 14 12 10 14 11 10 9 7 8 9 4 2 2 1 1 1 6 10 9 7 9 10 11 9
46 48 51 47 44 39 35 32 28 25 24 23 20 21 23 24 22 18 17 17 15 15 11 3 4 5 8 7 6 4 2 2 4 3 3 3 5 6 3 3 2 1 3
33 42 47 48 46 43 36 34 32 28 24 23 26 26 22 21 21 18 19 20 21 20 12 9 9 8 10 10 10 9 8 8 8 7 5 5 7 8 7 6 9 7 7
32 38 41 43 43 44 43 39 34 29 33 29 30 34 32 26 19 14 18 23 23 21 17 15 16 16 16 16 15 15 15 15 14 13 11 11 10 11 13 13 10 10 9
30 38 40 40 40 40 38 39 38 37 35 36 38 28 27 28 25 19 21 24 23 23 21 19 18 17 17 16 15 14 15 16 18 18 20 18 16 17 18 16 13 14 16
27 33 39 41 42 40 41 40 41 42 42 44 30 23 26 26 23 21 21 21 20 20 19 17 15 11 9 7 6 6 8 11 14 16 17 20 23 26 26 22 20 19 18
27 31 37 43 43 41 45 44 43 43 45 45 33 25 26 24 23 21 19 19 17 15 12 8 7 5 4 5 5 5 5 7 9 10 12 15 22 29 29 28 26 27 25
30 33 36 42 45 45 44 46 46 46 45 48 37 31 27 25 22 21 18 17 14 12 9 8 5 3 3 4 5 6 8 9 11 11 10 12 17 24 26 28 29 30 30
35 37 39 42 47 50 47 47 48 45 46 46 41 34 28 26 24 20 18 16 15 13 12 10 8 6 4 4 4 5 7 9 12 13 13 13 15 19 21 24 28 29 32
41 41 44 46 50 52 50 50 50 48 49 44 42 38 33 30 27 24 24 22 19 16 14 11 8 6 7 7 6 6 6 8 10 12 13 15 17 19 20 21 23 26 30
44 45 48 50 51 54 56 56 55 54 53 48 46 42 36 35 31 30 27 25 22 20 17 13 10 8 7 7 8 8 10 11 11 12 12 14 17 20 21 21 22 24 26
46 49 50 54 55 57 60 60 61 60 58 54 52 47 43 43 40 37 33 29 27 23 19 14 10 7 7 8 9 11 12 13 14 13 13 13 17 19 21 21 23 24 26
51 50 53 58 60 62 63 66 66 66 64 62 59 54 52 51 48 44 39 35 31 26 20 16 12 9 9 10 13 15 15 15 15 15 15 14 16 18 19 20 21 23 24
52 55 57 59 63 67 69 70 72 72 70 67 65 61 58 56 53 49 45 42 37 31 27 22 17 13 11 12 14 16 16 17 17 18 18 16 15 17 19 20 21 19 18
45 47 55 63 67 71 73 75 77 77 75 73 73 70 66 62 60 57 53 49 44 39 34 28 23 17 12 12 15 16 18 18 18 19 19 18 16 15 17 18 18 13 7
58 53 55 60 71 76 79 79 81 81 80 80 79 76 74 70 68 65 60 56 50 44 39 34 27 21 16 14 15 17 18 18 19 18 18 15 13 13 14 14 17 18 20
81 74 68 65 70 78 84 86 86 86 86 86 85 84 82 78 74 72 68 62 57 52 47 41 35 28 22 18 16 15 17 19 20 16 13 13 14 14 13 13 12 12 13
68 67 68 70 74 75 84 92 93 93 91 91 90 89 90 85 80 78 73 67 64 61 55 49 43 35 26 21 17 14 17 19 19 18 15 14 14 14 13 15 16 15 11
52 52 54 56 66 75 82 92 99 100 99 100 97 95 94 91 87 83 79 75 73 69 63 57 49 40 32 27 21 16 15 16 17 18 18 17 17 16 16 16 15 12 11
35 39 43 52 55 67 84 94 103 108 107 109 105 101 99 95 92 89 86 84 80 76 68 60 54 49 43 35 26 17 13 14 15 17 17 17 16 13 12 13 15 16 15
34 32 41 44 53 61 74 87 98 103 109 111 109 108 105 101 97 96 94 89 84 81 74 70 63 58 52 43 31 21 13 16 21 22 23 21 17 13 9 13 14 13 13
40 31 37 44 49 59 68 79 90 99 100 107 115 116 112 105 102 99 95 91 88 85 82 75 70 65 58 50 41 27 14 16 23 31 34 31 27 18 13 14 15 14 13
53 45 36 39 48 58 67 78 86 93 98 100 108 110 110 107 106 103 101 98 94 90 86 80 74 69 65 60 49 42 36 26 21 18 34 34 35 28 19 16 16 15 15
60 48 35 40 40 52 64 71 79 86 91 94 95 98 105 108 108 106 103 101 98 93 87 83 80 78 73 65 59 51 43 37 36 32 21 30 35 33 25 20 17 14 14
76 67 46 36 37 36 52 64 72 77 83 88 89 87 90 102 107 106 105 102 98 94 93 88 84 80 75 69 63 58 52 46 40 38 37 29 30 29 29 25 20 14 13
Wind_Direction_850mb
189 191 193 191 185 186 185 177 175 177 184 190 194 202 211 200 199 190 184 176 210 218 220 226 228 248 245 207 205 200 156 109 87 79 88 95 97 90 62 62 71 71 58
189 192 195 195 192 193 194 195 191 186 190 197 203 210 219 221 229 222 202 193 197 221 233 234 239 252 244 255 272 299 274 245 255 2 73 113 127 126 115 98 89 79 68
191 195 198 201 202 202 203 203 203 203 206 209 216 221 225 231 241 243 243 233 225 232 259 273 285 295 287 277 293 314 297 287 286 266 252 251 193 173 179 171 129 47 8
187 198 201 203 204 205 203 204 201 204 206 208 211 222 228 228 237 238 238 236 240 252 271 267 268 273 279 283 286 286 286 276 270 274 270 254 239 232 235 246 244 265 289
184 195 201 203 204 203 203 208 205 202 208 214 216 226 225 238 245 231 223 229 243 258 264 269 270 273 274 270 270 273 277 278 275 272 268 260 256 252 249 251 256 257 266
198 197 202 203 203 200 202 205 203 200 208 213 215 221 215 227 241 239 226 227 235 249 260 263 263 266 272 276 276 274 275 273 271 265 260 257 258 255 256 256 253 258 256
213 208 208 205 204 201 196 196 196 199 203 215 224 227 216 229 237 232 225 230 234 239 245 255 264 272 271 278 286 293 285 276 270 263 258 254 250 251 257 254 253 257 266
223 220 213 211 212 209 206 208 209 209 216 231 240 234 229 227 223 226 228 231 234 237 237 233 235 239 268 290 306 306 285 274 274 272 261 246 246 248 251 255 256 259 267
228 226 222 218 216 219 215 216 217 219 222 233 239 234 228 224 220 216 214 215 216 214 206 208 212 234 266 284 292 290 291 290 286 274 263 254 247 251 255 254 255 256 259
231 231 227 225 223 224 223 221 225 224 228 235 236 234 226 222 216 213 217 215 207 198 196 194 194 204 229 256 280 291 289 285 282 284 284 277 265 262 259 254 251 254 255
236 233 231 228 226 226 226 227 228 227 231 232 229 230 227 222 215 213 215 211 208 204 206 214 229 257 278 292 304 305 302 296 289 282 277 273 272 271 273 270 265 259 258
248 244 237 232 231 228 227 227 229 230 234 230 228 229 225 221 218 219 218 214 210 207 212 220 231 252 277 293 304 312 316 313 302 295 289 278 270 266 266 269 270 268 265
261 251 247 240 235 232 230 230 230 231 233 232 229 229 224 221 221 221 220 217 214 214 219 226 234 248 276 302 315 321 323 317 315 309 297 282 270 265 264 264 263 263 267
262 256 249 245 241 239 234 232 233 233 234 233 231 228 225 224 223 222 221 219 220 220 222 226 237 259 286 312 321 324 323 320 317 313 307 293 278 271 262 257 258 261 266
261 256 251 246 243 242 239 237 234 235 235 235 234 232 230 228 228 226 223 223 222 223 224 226 233 248 273 301 317 322 320 321 321 319 312 304 290 275 269 262 254 251 253
273 269 255 248 244 243 241 240 239 237 238 235 234 233 232 230 230 228 226 225 225 225 224 225 228 237 261 295 310 316 316 316 317 318 313 308 301 280 262 260 256 242 123
281 275 267 257 247 244 241 240 239 238 238 238 236 234 233 231 230 229 228 227 226 226 225 227 230 238 252 277 293 303 305 307 307 307 300 292 280 273 265 246 225 222 219
283 279 278 267 254 246 243 241 239 238 237 236 235 234 234 232 231 230 228 226 227 227 226 225 226 229 235 252 272 288 296 299 298 290 276 263 254 250 245 247 246 230 231
288 282 275 268 260 251 243 241 240 239 238 237 236 234 234 233 232 230 229 227 228 227 226 225 225 224 231 245 258 277 291 295 290 278 260 243 236 233 232 242 251 254 249
298 286 275 264 256 249 242 238 238 238 237 237 235 234 234 232 232 230 228 227 228 227 225 225 224 224 227 231 242 258 273 277 267 253 244 238 239 247 254 256 259 264 273
318 295 280 268 257 246 237 234 234 235 235 235 234 234 233 231 231 230 229 228 227 228 229 227 224 223 223 224 227 231 245 251 240 224 219 213 209 207 219 237 250 258 259
320 303 291 270 254 247 240 238 235 237 236 236 235 233 231 229 229 229 229 229 229 229 226 224 224 223 221 221 220 219 225 233 225 224 212 205 208 214 241 260 259 255 249
324 297 284 282 263 253 245 237 236 235 237 238 235 232 230 228 228 229 230 231 232 231 230 228 226 225 225 225 222 216 194 217 212 222 221 224 224 222 261 262 262 249 232
336 318 269 267 271 262 252 246 239 237 236 238 238 235 232 230 229 228 228 229 230 231 230 230 229 227 227 227 223 224 232 234 199 213 227 228 222 237 256 258 243 229 220
359 346 310 283 269 266 260 255 249 243 242 243 241 237 232 230 230 230 230 229 229 229 230 230 228 225 226 227 229 232 231 233 232 231 224 226 226 228 244 245 235 220 194
12 12 4 345 318 287 271 263 261 257 252 248 244 240 236 231 230 231 232 232 231 231 229 228 228 228 228 229 231 235 239 237 237 231 229 226 216 225 231 232 217 209 194